Regional Weather Roundup
Issued by NWS

Home | Current Version | Previous Version | Graphics & Text | Print | Product List | Glossary On
Versions: 1 2 3 4 5 6 7 8 9 10 11 12 13 14 15 16 17 18 19 20 21 22 23 24 25 26 27 28 29 30 31 32 33 34 35 36 37 38 39 40 41 42 43 44 45 46 47 48 49 50
000
ASUS43 KFSD 260502
RWRSD

WEATHER ROUNDUP FOR SOUTH DAKOTA
NATIONAL WEATHER SERVICE SIOUX FALLS SD
1200 AM CDT WED APR 26 2017

NOTE: "FAIR" INDICATES FEW OR NO CLOUDS BELOW 12,000 FEET WITH NO
SIGNIFICANT WEATHER AND/OR OBSTRUCTIONS TO VISIBILITY.


SDZ001>005-009-010-012>017-260600-
NORTHWEST AND NORTH CENTRAL SOUTH DAKOTA

CITY           SKY/WX    TMP DP  RH WIND       PRES   REMARKS
BUFFALO          N/A     30  25  81 N8        29.86S WCI  22
FAITH            N/A     30  28  92 N12       29.89S WCI  20
MOBRIDGE       CLOUDY    34  25  69 N18G25    29.84S WCI  23
$$

SDZ012>016-024>037-041>051-057-063-072>074-260600-
SOUTHWEST AND SOUTH CENTRAL SOUTH DAKOTA

CITY           SKY/WX    TMP DP  RH WIND       PRES   REMARKS
RAPID CTY ARPT CLOUDY    28  25  88 N18       29.91F WCI  15
PIERRE         FLURRIES  32  28  85 NW13      29.84F WCI  22
CUSTER         LGT SNOW  25  21  85 CALM      29.81S FOG
ELLSWORTH AFB  CLOUDY    28  28 100 N15       29.90F WCI  16
PHILIP         LGT SNOW  30  29  96 NW15      29.89F FOG     WCI  19
PINE RIDGE     CLOUDY    29  25  85 N8        29.89S WCI  21
SPEARFISH      FLURRIES  25  25 100 W5        29.92S WCI  19
WINNER         CLOUDY    33  29  85 NW17G24   29.82S WCI  22
$$

SDZ004>011-016>023-039-040-260600-
NORTHEAST SOUTH DAKOTA

CITY           SKY/WX    TMP DP  RH WIND       PRES   REMARKS
ABERDEEN       CLOUDY    32  27  81 N20G28    29.79F WCI  20
WATERTOWN      CLOUDY    32  31  96 N17G24    29.68F WCI  21
BROOKINGS      LGT RAIN  34  33  96 N14       29.66F WCI  25
SISSETON         N/A     33  32  96 N17       29.73F WCI  22
$$

SDZ017-020-022-023-036>040-048>070-260600-
SOUTHEAST SOUTH DAKOTA

CITY           SKY/WX    TMP DP  RH WIND       PRES   REMARKS
SIOUX FALLS    CLOUDY    37  37 100 N16G24    29.65F
HURON          CLOUDY    33  31  92 NW16      29.76F WCI  23
CHAMBERLAIN    CLOUDY    35  31  87 NW15      29.80F WCI  25
MITCHELL       CLOUDY    34  31  88 N18G24    29.76S WCI  23
YANKTON        CLOUDY    36  30  80 NW21G29   29.70F
$$

ABBREVIATIONS USED IN REMARKS
   TC - TEMPERATURE IN CELSIUS
  WCI - WIND CHILL INDEX
   HX - HEAT INDEX
  VSB - VISIBILITY




USA.gov is the U.S. government's official web portal to all federal, state and local government web resources and services.